Lapse_Rate
7.8 7.3 7.4 9.6 9.8 9.8 9.8 9.8 9.9 9.9 9.9 9.9 10.0 9.9 9.9 9.9 9.9 9.7 9.5 9.4 9.4 9.4 9.6 9.5 9.5 9.8 9.6 9.8 9.7 10.1 9.7 9.7 9.0 9.6 10.3 10.5 10.0 10.1 10.0 9.9 9.9 10.0 10.1
7.4 7.6 9.6 9.7 9.8 9.7 9.7 9.8 9.8 9.9 9.8 9.9 10.0 9.9 9.9 9.9 9.8 9.6 9.5 9.6 9.4 9.2 9.3 9.4 9.4 9.8 9.5 9.7 10.0 9.4 9.6 9.7 9.3 9.1 9.6 9.9 9.6 10.1 10.1 10.2 10.3 9.7 10.0
9.6 9.6 9.6 9.6 9.6 9.6 9.7 9.8 10.0 9.9 9.9 9.9 10.0 9.8 9.8 9.6 9.4 8.8 9.4 9.5 9.0 9.2 9.4 9.4 9.4 9.5 9.5 9.5 9.6 9.6 9.8 9.7 9.9 9.8 9.6 9.6 9.9 10.2 10.1 10.0 10.1 10.1 9.7
9.6 9.5 9.4 9.5 9.6 9.7 9.7 9.8 9.8 9.9 9.8 9.9 9.9 9.8 9.1 8.8 9.5 9.6 9.3 9.1 9.3 9.5 9.6 9.6 9.7 9.6 9.5 9.4 9.6 9.5 9.6 9.4 9.5 9.7 9.6 9.3 9.5 9.7 10.0 9.7 9.5 9.8 9.9
9.4 9.5 9.4 9.6 9.7 9.7 9.7 9.7 9.8 9.9 9.9 9.9 9.7 9.7 9.5 9.4 9.5 9.6 9.6 9.4 9.5 9.5 9.7 9.8 9.8 8.9 8.4 8.5 9.1 9.6 9.6 9.4 9.2 9.1 9.0 9.1 9.0 9.2 9.1 9.6 9.2 9.3 9.4
9.4 9.4 9.5 9.5 9.6 9.6 9.6 9.6 9.7 9.8 9.8 9.7 9.5 9.1 9.3 9.5 5.1 5.6 5.9 9.6 9.6 9.7 9.5 9.7 9.9 9.6 9.4 8.8 8.8 9.1 8.8 9.3 8.9 9.3 8.9 8.7 8.7 9.4 9.6 8.5 8.5 8.5 8.5
9.3 9.4 9.5 9.5 9.5 9.5 9.7 9.7 9.7 9.5 9.6 9.5 9.2 9.3 8.9 9.1 5.7 5.4 5.5 8.5 9.7 9.6 9.6 9.6 9.7 10.0 9.6 9.6 9.2 9.2 9.3 9.2 8.4 8.8 8.6 8.9 8.4 8.7 8.7 8.8 9.0 9.0 8.8
9.3 9.3 9.5 9.5 9.5 9.6 9.6 9.6 9.5 9.6 9.5 9.5 9.2 9.3 7.9 7.3 5.6 5.4 5.6 8.1 9.7 9.7 9.7 9.7 9.7 9.6 9.1 7.6 8.6 9.4 9.3 9.4 9.5 9.6 9.4 9.2 9.3 9.7 9.5 9.4 9.2 8.8 8.5
9.2 9.3 9.5 9.5 9.5 9.5 9.5 9.5 9.6 9.5 9.4 9.4 9.5 9.3 9.1 7.2 5.5 5.5 5.9 8.9 9.5 9.4 9.7 9.8 9.7 9.7 7.8 7.1 7.7 9.0 9.0 9.3 9.4 9.0 9.3 9.3 9.0 8.7 8.5 8.7 8.0 8.0 8.1
9.3 9.4 9.6 9.7 9.6 9.5 9.5 9.5 9.6 9.6 9.5 9.4 9.1 9.2 6.7 8.7 6.0 6.0 6.4 8.3 8.7 8.9 9.6 9.7 7.7 7.6 6.7 6.9 7.0 8.8 8.7 8.9 9.4 9.4 9.5 9.3 9.4 9.3 8.7 8.8 8.1 7.5 7.7
9.5 9.6 9.6 9.7 9.7 9.7 9.6 9.6 9.6 9.5 9.1 8.0 7.3 8.4 8.9 8.3 8.0 6.7 6.6 7.4 8.6 8.9 9.2 9.4 9.6 7.0 6.5 6.4 6.6 7.9 8.4 7.8 8.2 8.8 9.1 9.3 9.3 9.3 9.2 9.0 9.1 9.1 8.6
9.5 9.5 9.5 9.7 9.8 9.8 9.6 9.6 9.5 9.2 8.8 7.3 7.4 7.3 8.7 8.6 7.7 7.3 7.2 6.7 7.3 7.7 9.0 9.3 9.4 7.1 6.4 6.1 6.5 8.1 7.5 7.5 8.9 9.3 9.2 8.8 8.9 8.9 9.2 9.2 8.9 8.4 8.4
9.3 9.4 9.5 9.6 9.0 9.7 9.5 9.4 9.2 8.7 8.5 8.1 7.8 7.9 8.2 8.2 9.0 7.3 7.3 7.0 6.8 6.4 9.0 8.8 7.0 6.8 7.0 7.5 9.2 8.3 7.6 9.3 9.2 9.0 8.9 8.8 9.0 9.2 8.7 8.6 8.8 8.8 8.7
9.3 9.4 9.5 9.4 9.2 9.1 9.5 9.4 9.1 8.7 8.6 8.5 8.6 8.5 8.3 8.6 8.6 9.2 6.9 7.3 6.9 7.6 8.4 8.8 8.3 7.5 7.6 7.7 8.3 9.5 9.5 9.4 9.3 9.1 9.0 9.1 9.2 9.1 9.0 9.1 8.4 8.6 8.0
9.3 9.4 9.3 9.3 9.0 8.4 8.2 8.7 9.0 9.4 8.7 8.8 8.9 9.0 8.7 8.2 8.7 7.8 7.5 8.5 8.8 8.2 7.0 8.1 9.1 9.0 9.0 9.2 9.3 9.4 9.5 9.5 9.3 9.4 9.2 9.1 9.1 9.0 9.0 9.1 8.8 8.6 8.4
9.1 9.2 9.1 9.1 8.7 8.2 8.2 8.4 8.4 7.6 7.4 7.2 7.0 7.4 8.0 8.2 8.2 7.9 7.5 7.4 7.4 7.5 7.5 8.8 8.7 8.6 8.7 8.8 9.0 9.1 9.3 9.3 9.4 9.2 9.3 9.1 9.0 9.0 8.9 8.9 8.9 8.6 8.2
9.1 9.0 9.1 8.5 8.8 8.4 8.3 8.5 8.2 8.6 7.4 7.4 7.3 7.4 7.5 7.8 8.3 8.4 8.0 7.9 8.1 8.0 7.3 8.6 8.5 8.3 8.6 8.8 9.1 9.2 9.1 9.4 8.6 9.4 9.3 9.1 9.0 9.0 9.0 8.8 8.7 8.7 8.6
9.2 7.2 8.6 8.7 8.2 8.5 8.5 8.1 8.1 7.7 7.7 8.5 8.0 7.5 7.5 7.5 7.8 8.2 8.3 8.3 8.4 7.8 8.6 8.8 8.5 8.2 8.8 9.0 9.2 9.2 9.2 9.2 9.0 9.2 9.1 9.1 8.9 8.9 8.8 8.8 8.9 8.7 8.6
9.3 9.2 8.8 8.3 8.0 8.0 8.0 7.9 7.9 7.7 7.9 8.2 8.3 8.2 7.6 7.2 7.3 7.6 7.9 8.5 8.6 8.3 8.7 8.4 8.2 8.4 8.7 9.1 9.0 8.8 8.8 9.0 8.7 8.7 9.1 9.0 9.0 9.0 8.9 8.9 8.9 8.9 8.8
9.3 7.3 6.9 8.4 8.1 8.1 8.0 8.0 8.2 8.1 8.1 7.9 8.2 8.3 8.3 8.1 7.4 7.3 7.5 7.7 8.0 8.4 8.5 8.7 8.6 8.6 8.6 9.0 8.8 8.5 8.4 8.6 8.8 9.1 9.0 9.0 9.1 9.1 8.9 8.9 8.9 8.8 8.9
9.4 9.3 7.5 8.6 8.9 8.3 7.9 7.6 7.9 7.7 7.8 8.1 8.1 7.5 7.6 7.9 7.9 8.2 8.2 8.3 8.0 8.0 8.2 8.4 8.5 8.4 8.4 8.4 8.8 8.7 8.7 8.8 9.0 9.1 9.1 9.1 8.8 8.9 9.2 9.1 9.0 9.0 9.1
8.8 7.3 6.6 7.4 7.6 7.3 7.9 8.3 8.2 8.0 8.0 7.7 7.9 8.1 7.3 7.0 7.7 8.0 8.1 8.0 8.0 8.2 8.2 8.2 8.3 8.5 8.4 8.6 8.9 8.7 8.8 8.6 8.9 9.1 9.0 7.7 8.5 9.2 9.2 9.1 9.1 8.9 9.0
7.9 7.7 7.8 8.2 8.1 8.0 7.6 7.9 7.9 7.8 7.9 7.7 7.6 7.4 7.3 7.1 7.1 7.6 7.7 7.4 7.8 7.8 8.0 8.1 7.7 8.1 8.1 8.0 7.9 8.0 8.9 9.1 9.1 8.6 6.9 6.8 8.1 9.2 8.4 9.0 9.0 8.9 8.0
6.6 7.1 7.7 7.9 8.1 8.2 8.0 7.7 7.7 7.7 7.8 7.6 7.3 7.2 7.2 7.1 7.0 7.0 6.9 6.8 6.8 6.7 7.1 7.5 7.8 7.7 7.9 7.3 6.8 6.6 7.0 7.2 6.9 6.1 5.2 6.0 6.7 8.5 8.1 9.0 9.1 8.5 7.6
7.0 6.9 7.1 7.6 7.7 7.6 7.6 7.6 7.5 7.4 7.5 7.6 7.6 7.5 7.8 7.4 7.4 7.1 7.0 6.9 6.8 6.7 6.8 7.0 7.5 7.5 7.2 7.0 6.8 6.2 6.7 5.9 5.7 5.6 5.4 5.4 6.0 5.9 6.0 7.0 7.4 7.8 7.3
6.9 7.1 7.1 7.1 7.6 7.7 7.8 7.9 8.0 8.0 7.7 7.6 7.6 7.5 7.7 7.7 7.7 7.4 7.3 7.2 7.0 6.9 6.8 6.8 7.1 7.1 7.0 6.7 6.7 6.6 6.1 4.1 3.5 3.3 4.6 6.1 6.3 7.0 8.0 8.1 7.3 6.7 7.6
Wind_Speed
4 4 5 4 4 5 6 6 6 7 10 11 11 12 12 13 14 12 9 10 11 10 11 8 9 8 7 8 9 10 10 10 13 12 12 13 15 15 16 21 21 21 21
1 8 4 5 5 7 6 6 7 8 11 11 12 12 12 13 12 10 11 10 11 9 7 7 8 8 11 12 10 13 11 13 12 17 14 12 15 16 15 15 16 23 21
9 5 5 5 7 7 6 7 8 9 10 12 11 12 13 12 10 10 10 9 8 5 7 7 9 12 12 11 12 12 12 12 12 12 13 10 11 12 13 13 13 14 21
4 4 6 6 6 7 7 8 9 9 10 11 11 11 9 10 9 6 6 5 6 7 7 8 11 11 12 12 12 13 12 13 13 12 12 12 11 12 11 11 11 10 10
3 5 6 5 7 8 9 9 10 10 11 12 10 11 6 6 7 4 6 6 7 8 10 10 10 8 6 7 6 12 12 12 11 11 11 11 11 11 12 10 10 10 10
4 5 6 7 8 10 10 10 11 11 12 11 10 9 10 7 7 5 4 8 9 10 10 9 10 10 4 7 15 11 9 13 14 11 11 11 15 12 12 11 11 10 11
5 6 6 8 9 10 11 11 11 11 11 9 9 10 10 12 6 6 1 7 10 8 9 9 9 8 7 11 13 15 15 14 13 13 14 14 15 13 13 14 14 13 12
5 6 7 8 10 11 12 11 12 10 10 10 10 9 8 3 8 6 2 8 9 8 8 10 10 9 8 8 12 14 14 14 14 11 12 14 14 14 14 13 14 14 13
6 7 8 9 11 11 12 12 11 11 9 8 11 9 9 4 8 6 4 8 8 8 9 10 8 9 8 12 11 13 14 13 17 16 20 23 24 26 24 11 11 10 10
7 8 9 10 11 11 11 11 11 10 10 5 7 6 1 3 8 8 5 5 4 6 8 9 5 5 6 10 10 11 12 12 13 15 14 15 19 17 17 13 9 9 9
6 8 10 10 11 10 10 7 10 10 6 4 4 7 8 5 5 9 6 5 6 6 7 7 7 9 12 13 12 10 10 13 14 11 10 9 9 9 8 10 10 8 9
8 10 11 11 9 8 11 9 10 8 6 2 3 5 7 7 8 11 11 10 8 6 8 7 8 14 14 14 11 10 14 12 8 8 9 8 8 8 8 9 14 15 15
9 11 9 10 11 12 11 10 7 6 5 5 5 6 5 4 6 10 11 10 10 6 7 8 11 13 12 10 8 11 11 7 7 8 8 8 8 9 11 10 12 14 12
10 11 9 8 9 10 10 8 6 6 6 5 6 6 5 7 5 6 6 6 10 7 9 6 8 11 11 11 9 6 5 5 7 8 8 8 8 8 8 8 8 8 9
9 10 9 7 8 7 7 8 8 9 5 6 7 7 6 6 6 2 4 5 4 2 4 6 7 6 6 6 6 6 6 5 6 6 8 8 8 8 8 8 8 8 8
9 8 8 7 6 6 7 8 10 11 11 8 9 9 7 11 11 9 8 9 10 9 6 7 7 5 6 6 6 6 6 6 6 6 7 7 8 8 8 8 7 8 8
10 10 8 7 7 6 7 8 8 7 11 14 14 16 16 15 14 14 12 13 13 9 7 8 7 6 6 6 6 6 6 5 6 6 6 6 7 8 9 7 7 7 7
10 8 8 7 6 7 7 8 7 8 7 7 11 15 15 17 16 15 13 11 8 10 9 8 7 6 6 7 6 5 5 5 5 6 6 6 6 7 8 7 7 7 7
10 9 7 7 7 8 8 8 7 8 9 9 8 7 10 15 14 14 13 9 9 9 8 8 7 6 6 6 5 4 5 6 5 5 6 5 5 6 7 7 7 8 9
12 9 7 7 8 9 9 9 8 9 9 9 8 8 7 5 7 8 9 9 9 9 8 8 7 6 6 6 5 4 5 6 5 4 5 5 5 5 5 7 7 7 7
10 10 8 10 10 9 9 9 9 9 9 9 9 7 10 9 8 7 7 7 8 9 8 7 7 6 6 6 6 6 5 5 5 4 5 5 4 5 5 5 6 7 7
9 8 8 8 7 8 8 8 9 9 10 10 9 9 11 8 9 9 9 8 8 8 7 7 7 7 6 7 7 6 6 6 5 5 4 4 5 5 4 5 5 5 6
9 7 7 8 8 10 9 9 9 9 9 9 9 9 8 8 9 10 10 9 8 8 6 7 6 7 7 9 10 7 7 6 5 3 4 4 4 4 4 5 5 5 5
7 8 7 8 7 8 9 8 8 11 9 8 8 7 8 8 8 10 10 9 9 8 8 7 7 9 7 10 11 11 11 9 7 7 6 4 4 3 4 4 4 4 4
6 6 7 7 8 8 7 7 8 8 8 7 7 7 7 7 7 7 7 8 8 8 9 8 10 12 14 14 14 15 13 12 10 8 7 6 5 4 4 4 3 4 3
6 5 5 5 6 7 8 9 10 9 9 8 8 8 9 8 8 7 7 7 7 8 9 6 11 14 15 17 18 17 15 15 13 10 8 7 5 5 4 4 2 4 2
Wind_Direction
137 146 242 260 291 282 293 302 300 311 312 315 311 309 307 305 301 305 311 298 288 298 306 283 290 295 298 301 299 288 291 290 291 297 300 304 309 307 309 307 302 298 292
142 222 220 259 280 281 286 291 306 308 313 313 311 309 305 305 307 315 309 316 319 302 303 299 303 304 305 295 289 297 297 295 291 294 294 300 306 307 308 305 296 294 294
208 226 258 284 286 286 294 301 303 309 311 311 310 307 311 333 327 317 306 308 299 272 277 298 306 295 297 308 311 314 315 310 306 297 296 302 302 300 299 297 296 288 284
228 285 293 291 296 297 300 296 298 304 308 305 308 316 333 298 289 294 282 262 282 284 291 288 294 313 313 333 314 307 306 309 305 300 301 303 300 298 294 293 293 294 293
277 293 298 297 296 293 290 292 297 298 295 301 311 308 278 296 268 265 296 273 283 295 292 308 311 345 305 306 300 305 309 308 307 303 301 300 297 295 298 300 295 294 298
295 298 309 310 298 294 294 290 286 290 297 310 321 299 299 271 124 84 335 306 309 303 313 316 312 301 320 302 270 276 293 295 294 289 292 292 294 295 299 309 303 301 299
305 307 310 308 302 300 296 293 290 292 301 322 306 307 295 281 141 124 28 296 304 305 306 311 312 313 310 337 331 313 296 292 274 280 284 285 295 302 310 307 304 302 296
306 310 306 307 305 302 299 293 289 301 311 313 286 280 278 294 163 142 242 290 291 300 314 305 303 319 359 349 325 309 305 301 300 299 300 303 303 306 301 294 294 292 286
306 307 308 307 302 301 297 303 305 300 310 295 304 281 277 176 171 167 245 298 297 319 307 304 319 308 16 352 319 309 308 305 305 308 302 300 293 288 283 284 280 286 290
304 307 304 301 298 300 307 308 306 302 296 339 311 291 288 235 186 190 229 294 310 291 299 309 94 36 357 328 316 311 306 309 324 313 304 301 300 298 287 277 281 300 314
309 300 300 301 296 298 302 294 287 294 334 316 286 292 282 254 219 202 210 269 274 293 302 304 310 34 349 323 313 300 318 316 306 301 303 304 308 311 313 317 312 304 299
307 303 303 301 293 293 292 297 296 312 300 254 224 259 264 254 231 194 205 229 284 280 290 298 317 342 318 311 303 312 310 303 294 316 310 315 319 323 318 307 295 286 280
300 293 300 311 318 304 297 300 301 317 298 280 272 261 275 270 264 202 204 222 234 253 283 307 297 294 298 290 288 289 285 310 323 318 318 319 320 318 314 312 313 308 307
295 294 299 299 300 306 305 295 271 250 255 256 258 255 271 272 268 269 210 211 233 245 257 268 302 273 262 260 269 291 301 313 315 312 321 318 317 323 326 330 325 325 319
291 291 291 292 296 288 283 289 294 282 286 296 302 302 288 272 271 279 286 286 271 302 321 293 286 294 309 309 311 312 308 318 316 329 319 321 325 328 326 329 327 330 331
303 295 298 303 293 287 284 284 261 250 263 235 244 249 263 273 287 245 244 246 258 262 268 278 283 282 291 300 305 307 309 317 335 319 321 322 330 330 326 324 333 337 335
290 297 294 290 283 281 277 277 280 272 238 238 239 241 245 252 263 268 245 244 246 234 242 264 275 280 285 288 293 300 306 326 314 315 321 324 328 328 321 330 335 338 337
289 265 266 268 270 279 278 272 273 276 281 275 243 237 238 242 246 253 250 242 249 225 246 262 266 268 274 276 289 298 314 314 311 325 314 326 325 324 322 334 335 341 336
290 284 276 269 267 269 272 268 267 264 264 266 267 260 229 233 238 242 239 245 253 251 249 250 249 258 261 268 283 286 286 290 311 295 303 315 326 326 324 334 329 337 322
286 276 255 262 266 267 265 262 263 258 257 258 260 256 257 236 233 227 225 232 239 246 244 252 254 256 257 258 262 259 265 263 273 289 311 303 322 322 322 328 333 332 335
283 291 299 290 278 276 279 276 272 263 260 259 258 245 239 250 258 254 252 245 237 235 236 241 247 238 238 236 241 254 261 272 276 282 291 303 323 306 324 321 328 330 336
274 277 283 280 286 289 286 286 287 285 277 268 260 255 232 229 240 245 249 250 250 248 235 230 242 238 229 227 234 233 238 248 255 257 274 288 289 302 320 316 336 338 341
264 258 262 265 263 268 265 265 269 270 274 273 270 263 256 242 237 241 241 241 239 239 231 228 225 234 224 215 217 233 238 239 235 232 254 265 281 302 318 316 336 339 348
262 265 266 277 281 280 277 277 280 278 275 277 277 278 276 268 260 249 243 242 236 232 227 215 213 215 221 206 201 215 228 229 217 208 221 250 269 267 300 309 320 337 338
262 269 268 288 300 301 301 302 308 301 290 284 285 283 282 279 273 268 267 256 239 228 221 212 213 212 216 214 200 201 212 196 202 204 202 227 246 262 264 290 322 307 355
278 297 310 312 308 318 329 328 326 328 327 330 334 325 309 292 283 283 273 268 256 234 216 205 210 209 213 214 211 204 197 174 187 191 213 228 231 236 237 256 256 289 325